Time,TemperatureF,DewpointF,PressureIn,WindDirection,WindDirectionDegrees,WindSpeedMPH,WindSpeedGustMPH,Humidity,HourlyPrecipIn,Conditions,Clouds,dailyrainin,SoftwareType,DateUTC
2013-04-14 00:01:00,38.6,36.2,29.67,WSW,257,3.0,4.0,91,0.00,,,0.00,Wunderground v.1.15,2013-04-14 04:01:00,
2013-04-14 00:07:00,38.7,36.0,29.68,WSW,242,4.0,5.0,90,0.00,,,0.01,Wunderground v.1.15,2013-04-14 04:07:00,
2013-04-14 00:16:00,38.3,35.1,29.68,WNW,289,7.0,8.0,88,0.00,,,0.01,Wunderground v.1.15,2013-04-14 04:16:00,
2013-04-14 00:26:00,37.7,34.5,29.69,WSW,249,7.0,8.0,88,0.00,,,0.01,Wunderground v.1.15,2013-04-14 04:26:00,
2013-04-14 00:37:00,37.4,34.5,29.69,WSW,239,5.0,6.0,89,0.00,,,0.01,Wunderground v.1.15,2013-04-14 04:37:00,
2013-04-14 00:46:00,37.2,34.5,29.69,SSW,213,3.0,3.0,90,0.00,,,0.01,Wunderground v.1.15,2013-04-14 04:46:00,
2013-04-14 00:56:00,37.4,34.5,29.69,West,262,4.0,5.0,89,0.00,,,0.01,Wunderground v.1.15,2013-04-14 04:56:00,
2013-04-14 01:01:00,37.6,34.4,29.69,West,271,5.0,5.0,88,0.00,,,0.01,Wunderground v.1.15,2013-04-14 05:01:00,
2013-04-14 01:07:00,37.8,34.3,29.69,West,269,5.0,5.0,87,0.00,,,0.01,Wunderground v.1.15,2013-04-14 05:07:00,
2013-04-14 01:16:00,37.9,34.1,29.70,West,277,4.0,5.0,86,0.00,,,0.01,Wunderground v.1.15,2013-04-14 05:16:00,
2013-04-14 01:21:00,38.0,34.2,29.70,WSW,247,4.0,4.0,86,0.00,,,0.01,Wunderground v.1.15,2013-04-14 05:21:00,
2013-04-14 01:26:00,38.1,34.3,29.70,West,265,4.0,4.0,86,0.00,,,0.01,Wunderground v.1.15,2013-04-14 05:26:00,
2013-04-14 01:36:00,38.3,34.5,29.70,West,266,4.0,4.0,86,0.00,,,0.01,Wunderground v.1.15,2013-04-14 05:36:00,
2013-04-14 01:41:00,38.3,34.2,29.70,WNW,292,4.0,4.0,85,0.00,,,0.01,Wunderground v.1.15,2013-04-14 05:41:00,
2013-04-14 01:51:00,38.6,34.2,29.70,WNW,284,4.0,4.0,84,0.00,,,0.01,Wunderground v.1.15,2013-04-14 05:51:00,
2013-04-14 01:56:00,38.6,34.2,29.70,West,279,4.0,6.0,84,0.00,,,0.01,Wunderground v.1.15,2013-04-14 05:56:00,
2013-04-14 02:07:00,38.5,34.1,29.70,SW,234,4.0,6.0,84,0.00,,,0.01,Wunderground v.1.15,2013-04-14 06:07:00,
2013-04-14 02:16:00,38.4,34.3,29.70,West,277,2.0,3.0,85,0.00,,,0.01,Wunderground v.1.15,2013-04-14 06:16:00,
2013-04-14 02:21:00,38.4,34.3,29.70,WSW,254,2.0,2.0,85,0.00,,,0.01,Wunderground v.1.15,2013-04-14 06:21:00,
2013-04-14 02:31:00,38.3,34.5,29.70,West,261,2.0,2.0,86,0.00,,,0.01,Wunderground v.1.15,2013-04-14 06:31:00,
2013-04-14 02:41:00,38.2,34.4,29.70,WSW,249,3.0,3.0,86,0.00,,,0.01,Wunderground v.1.15,2013-04-14 06:41:00,
2013-04-14 02:51:00,38.3,34.2,29.70,WSW,248,3.0,3.0,85,0.00,,,0.01,Wunderground v.1.15,2013-04-14 06:51:00,
2013-04-14 02:56:00,38.4,34.0,29.70,WSW,251,4.0,4.0,84,0.00,,,0.01,Wunderground v.1.15,2013-04-14 06:56:00,
2013-04-14 03:01:00,38.4,34.0,29.70,SW,219,4.0,5.0,84,0.00,,,0.01,Wunderground v.1.15,2013-04-14 07:01:00,
2013-04-14 03:07:00,38.4,33.7,29.70,West,281,5.0,5.0,83,0.00,,,0.01,Wunderground v.1.15,2013-04-14 07:07:00,
2013-04-14 03:16:00,38.6,32.6,29.70,WSW,241,5.0,6.0,79,0.00,,,0.01,Wunderground v.1.15,2013-04-14 07:16:00,
2013-04-14 03:21:00,38.6,32.3,29.70,WNW,287,5.0,5.0,78,0.00,,,0.01,Wunderground v.1.15,2013-04-14 07:21:00,
2013-04-14 03:32:00,38.7,31.1,29.70,West,270,5.0,6.0,74,0.00,,,0.01,Wunderground v.1.15,2013-04-14 07:32:00,
2013-04-14 03:41:00,38.7,31.1,29.70,West,271,6.0,8.0,74,0.00,,,0.01,Wunderground v.1.15,2013-04-14 07:41:00,
2013-04-14 03:52:00,38.6,30.7,29.71,WSW,244,6.0,7.0,73,0.00,,,0.01,Wunderground v.1.15,2013-04-14 07:52:00,
2013-04-14 04:01:00,38.5,30.3,29.71,West,279,6.0,7.0,72,0.00,,,0.01,Wunderground v.1.15,2013-04-14 08:01:00,
2013-04-14 04:07:00,38.5,30.3,29.71,West,260,6.0,11.0,72,0.00,,,0.01,Wunderground v.1.15,2013-04-14 08:07:00,
2013-04-14 04:17:00,38.4,30.2,29.72,WSW,257,7.0,9.0,72,0.00,,,0.01,Wunderground v.1.15,2013-04-14 08:17:00,
2013-04-14 04:26:00,38.4,30.2,29.72,WNW,288,6.0,9.0,72,0.00,,,0.01,Wunderground v.1.15,2013-04-14 08:26:00,
2013-04-14 04:31:00,38.4,30.5,29.72,WSW,243,6.0,8.0,73,0.00,,,0.01,Wunderground v.1.15,2013-04-14 08:31:00,
2013-04-14 04:41:00,38.3,30.7,29.73,WSW,252,5.0,5.0,74,0.00,,,0.01,Wunderground v.1.15,2013-04-14 08:41:00,
2013-04-14 04:51:00,38.1,30.9,29.74,West,270,3.0,5.0,75,0.00,,,0.01,Wunderground v.1.15,2013-04-14 08:51:00,
2013-04-14 05:01:00,37.9,30.7,29.74,West,268,4.0,4.0,75,0.00,,,0.01,Wunderground v.1.15,2013-04-14 09:01:00,
2013-04-14 05:07:00,37.9,30.7,29.74,SW,235,5.0,5.0,75,0.00,,,0.01,Wunderground v.1.15,2013-04-14 09:07:00,
2013-04-14 05:16:00,37.7,30.8,29.75,West,267,4.0,5.0,76,0.00,,,0.01,Wunderground v.1.15,2013-04-14 09:16:00,
2013-04-14 05:26:00,37.5,30.6,29.74,West,276,4.0,4.0,76,0.00,,,0.01,Wunderground v.1.15,2013-04-14 09:26:00,
2013-04-14 05:31:00,37.4,30.8,29.75,West,265,5.0,5.0,77,0.00,,,0.01,Wunderground v.1.15,2013-04-14 09:31:00,
2013-04-14 05:41:00,37.2,31.0,29.75,West,259,4.0,4.0,78,0.00,,,0.01,Wunderground v.1.15,2013-04-14 09:41:00,
2013-04-14 05:46:00,37.1,30.9,29.75,West,266,4.0,4.0,78,0.00,,,0.01,Wunderground v.1.15,2013-04-14 09:46:00,
2013-04-14 05:56:00,36.9,31.0,29.75,West,277,4.0,5.0,79,0.00,,,0.01,Wunderground v.1.15,2013-04-14 09:56:00,
2013-04-14 06:07:00,36.6,30.7,29.75,WSW,244,4.0,4.0,79,0.00,,,0.01,Wunderground v.1.15,2013-04-14 10:07:00,
2013-04-14 06:16:00,36.4,30.8,29.75,West,275,4.0,4.0,80,0.00,,,0.01,Wunderground v.1.15,2013-04-14 10:16:00,
2013-04-14 06:21:00,36.3,30.7,29.76,West,261,4.0,4.0,80,0.00,,,0.01,Wunderground v.1.15,2013-04-14 10:21:00,
2013-04-14 06:36:00,36.1,30.8,29.77,West,262,5.0,6.0,81,0.00,,,0.01,Wunderground v.1.15,2013-04-14 10:36:00,
2013-04-14 06:46:00,35.9,30.9,29.77,WSW,254,4.0,4.0,82,0.00,,,0.01,Wunderground v.1.15,2013-04-14 10:46:00,
2013-04-14 06:56:00,35.8,30.8,29.78,West,266,4.0,4.0,82,0.00,,,0.01,Wunderground v.1.15,2013-04-14 10:56:00,
2013-04-14 07:01:00,35.8,30.8,29.78,WNW,288,4.0,4.0,82,0.00,,,0.01,Wunderground v.1.15,2013-04-14 11:01:00,
2013-04-14 07:07:00,35.9,30.9,29.78,West,273,4.0,4.0,82,0.00,,,0.01,Wunderground v.1.15,2013-04-14 11:07:00,
2013-04-14 07:16:00,36.1,31.1,29.79,WSW,243,4.0,4.0,82,0.00,,,0.01,Wunderground v.1.15,2013-04-14 11:16:00,
2013-04-14 07:21:00,36.3,31.3,29.79,WNW,283,4.0,5.0,82,0.00,,,0.01,Wunderground v.1.15,2013-04-14 11:21:00,
2013-04-14 07:31:00,36.6,31.3,29.79,WNW,292,4.0,5.0,81,0.00,,,0.01,Wunderground v.1.15,2013-04-14 11:31:00,
2013-04-14 07:46:00,37.3,31.7,29.79,West,281,5.0,5.0,80,0.00,,,0.01,Wunderground v.1.15,2013-04-14 11:46:00,
2013-04-14 07:51:00,37.6,32.0,29.80,West,273,4.0,6.0,80,0.00,,,0.01,Wunderground v.1.15,2013-04-14 11:51:00,
2013-04-14 08:01:00,38.0,32.1,29.80,West,273,5.0,5.0,79,0.00,,,0.01,Wunderground v.1.15,2013-04-14 12:01:00,
2013-04-14 08:07:00,38.3,32.4,29.80,WNW,294,5.0,5.0,79,0.00,,,0.01,Wunderground v.1.15,2013-04-14 12:07:00,
2013-04-14 08:16:00,38.7,32.4,29.80,West,267,6.0,8.0,78,0.00,,,0.01,Wunderground v.1.15,2013-04-14 12:16:00,
2013-04-14 08:26:00,39.2,32.9,29.81,WNW,298,6.0,7.0,78,0.00,,,0.01,Wunderground v.1.15,2013-04-14 12:26:00,
2013-04-14 08:36:00,39.6,32.3,29.81,West,277,6.0,6.0,75,0.00,,,0.01,Wunderground v.1.15,2013-04-14 12:36:00,
2013-04-14 08:41:00,39.9,32.9,29.81,West,281,6.0,6.0,76,0.00,,,0.01,Wunderground v.1.15,2013-04-14 12:41:00,
2013-04-14 08:51:00,40.2,32.6,29.81,West,264,6.0,7.0,74,0.00,,,0.01,Wunderground v.1.15,2013-04-14 12:51:00,
2013-04-14 09:01:00,40.5,32.9,29.81,SW,229,7.0,8.0,74,0.00,,,0.01,Wunderground v.1.15,2013-04-14 13:01:00,
2013-04-14 09:07:00,40.7,32.7,29.81,West,264,7.0,8.0,73,0.00,,,0.01,Wunderground v.1.15,2013-04-14 13:07:00,
2013-04-14 09:21:00,40.2,31.9,29.82,West,270,6.0,6.0,72,0.00,,,0.01,Wunderground v.1.15,2013-04-14 13:21:00,
2013-04-14 09:31:00,41.4,33.0,29.82,West,271,6.0,6.0,72,0.00,,,0.01,Wunderground v.1.15,2013-04-14 13:31:00,
2013-04-14 09:36:00,41.6,33.2,29.82,WNW,288,7.0,7.0,72,0.00,,,0.01,Wunderground v.1.15,2013-04-14 13:36:00,
2013-04-14 09:46:00,41.6,33.2,29.82,WNW,295,6.0,6.0,72,0.00,,,0.01,Wunderground v.1.15,2013-04-14 13:46:00,
2013-04-14 09:51:00,41.0,31.2,29.83,WNW,284,6.0,8.0,68,0.00,,,0.01,Wunderground v.1.15,2013-04-14 13:51:00,
2013-04-14 10:01:00,41.9,33.9,29.83,West,271,5.0,5.0,73,0.00,,,0.01,Wunderground v.1.15,2013-04-14 14:01:00,
2013-04-14 10:07:00,41.7,33.0,29.83,WNW,302,6.0,6.0,71,0.00,,,0.01,Wunderground v.1.15,2013-04-14 14:07:00,
2013-04-14 10:16:00,41.5,33.1,29.83,West,273,5.0,6.0,72,0.00,,,0.01,Wunderground v.1.15,2013-04-14 14:16:00,
2013-04-14 10:31:00,42.5,34.5,29.83,WSW,247,6.0,6.0,73,0.00,,,0.01,Wunderground v.1.15,2013-04-14 14:31:00,
2013-04-14 10:37:00,43.4,34.3,29.83,WNW,290,5.0,6.0,70,0.00,,,0.01,Wunderground v.1.15,2013-04-14 14:37:00,
2013-04-14 10:51:00,42.9,31.2,29.83,West,261,6.0,6.0,63,0.00,,,0.01,Wunderground v.1.15,2013-04-14 14:51:00,
2013-04-14 11:01:00,43.5,32.5,29.83,West,281,6.0,9.0,65,0.00,,,0.01,Wunderground v.1.15,2013-04-14 15:01:00,
2013-04-14 11:07:00,44.1,33.1,29.84,WNW,300,6.0,9.0,65,0.00,,,0.01,Wunderground v.1.15,2013-04-14 15:07:00,
2013-04-14 11:16:00,43.8,31.2,29.84,West,263,7.0,8.0,61,0.00,,,0.01,Wunderground v.1.15,2013-04-14 15:16:00,
2013-04-14 11:26:00,44.2,31.2,29.85,NW,304,7.0,7.0,60,0.00,,,0.01,Wunderground v.1.15,2013-04-14 15:26:00,
2013-04-14 11:36:00,44.3,33.7,29.84,West,272,7.0,8.0,66,0.00,,,0.01,Wunderground v.1.15,2013-04-14 15:36:00,
2013-04-14 11:46:00,44.4,31.4,29.85,WSW,240,6.0,6.0,60,0.00,,,0.01,Wunderground v.1.15,2013-04-14 15:46:00,
2013-04-14 11:56:00,43.8,31.6,29.85,WNW,298,6.0,13.0,62,0.00,,,0.01,Wunderground v.1.15,2013-04-14 15:56:00,
2013-04-14 12:07:00,43.3,29.9,29.85,WSW,257,6.0,6.0,59,0.00,,,0.01,Wunderground v.1.15,2013-04-14 16:07:00,
2013-04-14 12:16:00,43.9,34.0,29.86,WSW,254,4.0,5.0,68,0.00,,,0.01,Wunderground v.1.15,2013-04-14 16:16:00,
2013-04-14 12:21:00,44.3,33.3,29.86,WNW,282,4.0,4.0,65,0.00,,,0.01,Wunderground v.1.15,2013-04-14 16:21:00,
2013-04-14 12:31:00,44.6,33.2,29.87,WSW,257,4.0,4.0,64,0.00,,,0.01,Wunderground v.1.15,2013-04-14 16:31:00,
2013-04-14 12:36:00,44.8,33.0,29.87,WNW,284,5.0,5.0,63,0.00,,,0.01,Wunderground v.1.15,2013-04-14 16:36:00,
2013-04-14 12:46:00,45.2,32.9,29.87,WNW,285,4.0,5.0,62,0.00,,,0.01,Wunderground v.1.15,2013-04-14 16:46:00,
2013-04-14 12:52:00,44.8,33.4,29.87,North,5,4.0,4.0,64,0.00,,,0.01,Wunderground v.1.15,2013-04-14 16:52:00,
2013-04-14 13:01:00,44.7,32.5,29.87,WNW,287,4.0,7.0,62,0.00,,,0.01,Wunderground v.1.15,2013-04-14 17:01:00,
2013-04-14 13:07:00,44.2,33.2,29.87,SSW,211,4.0,7.0,65,0.00,,,0.01,Wunderground v.1.15,2013-04-14 17:07:00,
2013-04-14 13:21:00,44.2,32.4,29.88,West,265,4.0,5.0,63,0.00,,,0.01,Wunderground v.1.15,2013-04-14 17:21:00,
2013-04-14 13:26:00,44.5,32.3,29.87,WNW,284,5.0,8.0,62,0.00,,,0.01,Wunderground v.1.15,2013-04-14 17:26:00,
2013-04-14 13:31:00,44.8,33.7,29.88,NE,48,5.0,5.0,65,0.00,,,0.01,Wunderground v.1.15,2013-04-14 17:31:00,
2013-04-14 13:41:00,45.4,31.9,29.88,WNW,283,5.0,7.0,59,0.00,,,0.01,Wunderground v.1.15,2013-04-14 17:41:00,
2013-04-14 13:51:00,44.6,32.0,29.88,WNW,282,5.0,5.0,61,0.00,,,0.01,Wunderground v.1.15,2013-04-14 17:51:00,
2013-04-14 13:56:00,44.3,31.3,29.88,West,276,5.0,6.0,60,0.00,,,0.01,Wunderground v.1.15,2013-04-14 17:56:00,
2013-04-14 14:07:00,44.0,30.6,29.88,NW,308,5.0,5.0,59,0.00,,,0.01,Wunderground v.1.15,2013-04-14 18:07:00,
2013-04-14 14:16:00,43.6,31.4,29.89,NNW,338,4.0,5.0,62,0.00,,,0.01,Wunderground v.1.15,2013-04-14 18:16:00,
2013-04-14 14:21:00,43.4,31.6,29.88,East,99,5.0,5.0,63,0.00,,,0.01,Wunderground v.1.15,2013-04-14 18:21:00,
2013-04-14 14:31:00,43.2,31.4,29.88,WSW,249,4.0,4.0,63,0.00,,,0.01,Wunderground v.1.15,2013-04-14 18:31:00,
2013-04-14 14:41:00,43.1,32.1,29.88,West,281,3.0,3.0,65,0.00,,,0.01,Wunderground v.1.15,2013-04-14 18:41:00,
2013-04-14 14:46:00,43.2,31.4,29.88,West,272,3.0,5.0,63,0.00,,,0.01,Wunderground v.1.15,2013-04-14 18:46:00,
2013-04-14 14:51:00,43.1,30.6,29.88,NW,315,3.0,5.0,61,0.00,,,0.01,Wunderground v.1.15,2013-04-14 18:51:00,
2013-04-14 15:01:00,43.6,31.8,29.89,West,274,3.0,5.0,63,0.00,,,0.01,Wunderground v.1.15,2013-04-14 19:01:00,
2013-04-14 15:07:00,44.0,32.2,29.89,West,273,4.0,5.0,63,0.00,,,0.01,Wunderground v.1.15,2013-04-14 19:07:00,
2013-04-14 15:16:00,44.5,32.7,29.88,SW,216,3.0,4.0,63,0.00,,,0.01,Wunderground v.1.15,2013-04-14 19:16:00,
2013-04-14 15:21:00,44.7,32.5,29.88,WSW,240,3.0,3.0,62,0.00,,,0.01,Wunderground v.1.15,2013-04-14 19:21:00,
2013-04-14 15:31:00,45.0,32.8,29.88,WSW,254,3.0,4.0,62,0.00,,,0.01,Wunderground v.1.15,2013-04-14 19:31:00,
2013-04-14 15:36:00,45.0,32.8,29.88,West,259,3.0,4.0,62,0.00,,,0.01,Wunderground v.1.15,2013-04-14 19:36:00,
2013-04-14 15:47:00,46.0,33.7,29.88,WNW,284,3.0,3.0,62,0.00,,,0.01,Wunderground v.1.15,2013-04-14 19:47:00,
2013-04-14 15:56:00,47.2,32.3,29.88,WSW,246,4.0,4.0,56,0.00,,,0.01,Wunderground v.1.15,2013-04-14 19:56:00,
2013-04-14 16:07:00,46.6,33.0,29.88,SSW,212,2.0,3.0,59,0.00,,,0.01,Wunderground v.1.15,2013-04-14 20:07:00,
2013-04-14 16:16:00,46.5,32.9,29.88,WSW,250,2.0,3.0,59,0.00,,,0.01,Wunderground v.1.15,2013-04-14 20:16:00,
2013-04-14 16:26:00,46.2,33.9,29.88,South,189,2.0,5.0,62,0.00,,,0.01,Wunderground v.1.15,2013-04-14 20:26:00,
2013-04-14 16:36:00,46.9,34.1,29.88,NNW,344,2.0,4.0,61,0.00,,,0.01,Wunderground v.1.15,2013-04-14 20:36:00,
2013-04-14 16:41:00,47.3,32.8,29.89,North,360,2.0,4.0,57,0.00,,,0.01,Wunderground v.1.15,2013-04-14 20:41:00,
2013-04-14 16:51:00,46.7,32.7,29.88,NNE,19,1.0,3.0,58,0.00,,,0.01,Wunderground v.1.15,2013-04-14 20:51:00,
2013-04-14 16:56:00,46.3,31.9,29.88,NNE,14,2.0,3.0,57,0.00,,,0.01,Wunderground v.1.15,2013-04-14 20:56:00,
2013-04-14 17:07:00,45.8,31.0,29.88,North,5,2.0,3.0,56,0.00,,,0.01,Wunderground v.1.15,2013-04-14 21:07:00,
2013-04-14 17:16:00,45.4,31.5,29.87,North,9,3.0,3.0,58,0.00,,,0.01,Wunderground v.1.15,2013-04-14 21:16:00,
2013-04-14 17:26:00,45.3,32.2,29.88,NNE,26,2.0,4.0,60,0.00,,,0.01,Wunderground v.1.15,2013-04-14 21:26:00,
2013-04-14 17:36:00,45.8,32.3,29.88,North,360,2.0,2.0,59,0.00,,,0.01,Wunderground v.1.15,2013-04-14 21:36:00,
2013-04-14 17:41:00,46.0,31.6,29.87,NNE,32,3.0,4.0,57,0.00,,,0.01,Wunderground v.1.15,2013-04-14 21:41:00,
2013-04-14 17:56:00,45.8,31.0,29.88,North,360,2.0,3.0,56,0.00,,,0.01,Wunderground v.1.15,2013-04-14 21:56:00,
2013-04-14 18:01:00,46.0,32.0,29.88,NNW,336,2.0,2.0,58,0.00,,,0.01,Wunderground v.1.15,2013-04-14 22:01:00,
2013-04-14 18:07:00,46.0,31.2,29.88,NNW,336,1.0,2.0,56,0.00,,,0.01,Wunderground v.1.15,2013-04-14 22:07:00,
2013-04-14 18:16:00,45.5,32.0,29.88,NE,39,2.0,3.0,59,0.00,,,0.01,Wunderground v.1.15,2013-04-14 22:16:00,
2013-04-14 18:26:00,45.3,31.4,29.88,NNE,26,2.0,4.0,58,0.00,,,0.01,Wunderground v.1.15,2013-04-14 22:26:00,
2013-04-14 18:36:00,44.7,30.8,29.88,NE,48,3.0,3.0,58,0.00,,,0.01,Wunderground v.1.15,2013-04-14 22:36:00,
2013-04-14 18:46:00,44.2,31.6,29.89,ENE,58,1.0,3.0,61,0.00,,,0.01,Wunderground v.1.15,2013-04-14 22:46:00,
2013-04-14 18:56:00,44.0,31.0,29.89,ENE,63,3.0,3.0,60,0.00,,,0.01,Wunderground v.1.15,2013-04-14 22:56:00,
2013-04-14 19:07:00,43.6,30.6,29.89,ENE,63,2.0,2.0,60,0.00,,,0.01,Wunderground v.1.15,2013-04-14 23:07:00,
2013-04-14 19:16:00,43.3,30.7,29.89,NE,40,2.0,3.0,61,0.00,,,0.01,Wunderground v.1.15,2013-04-14 23:16:00,
2013-04-14 19:21:00,43.1,31.0,29.89,NE,40,2.0,2.0,62,0.00,,,0.01,Wunderground v.1.15,2013-04-14 23:21:00,
2013-04-14 19:31:00,42.8,31.1,29.89,NE,40,1.0,3.0,63,0.00,,,0.01,Wunderground v.1.15,2013-04-14 23:31:00,
2013-04-14 19:41:00,42.4,31.1,29.89,ENE,62,2.0,3.0,64,0.00,,,0.01,Wunderground v.1.15,2013-04-14 23:41:00,
2013-04-14 19:46:00,42.2,30.5,29.89,ENE,62,2.0,3.0,63,0.00,,,0.01,Wunderground v.1.15,2013-04-14 23:46:00,
2013-04-14 19:56:00,41.7,30.4,29.90,ENE,62,1.0,1.0,64,0.00,,,0.01,Wunderground v.1.15,2013-04-14 23:56:00,
2013-04-14 20:11:00,41.0,30.5,29.90,ENE,62,1.0,1.0,66,0.00,,,0.01,Wunderground v.1.15,2013-04-15 00:11:00,
2013-04-14 20:16:00,40.7,30.6,29.91,ENE,62,1.0,3.0,67,0.00,,,0.01,Wunderground v.1.15,2013-04-15 00:16:00,
2013-04-14 20:26:00,40.3,30.6,29.91,ENE,71,2.0,2.0,68,0.00,,,0.01,Wunderground v.1.15,2013-04-15 00:26:00,
2013-04-14 20:36:00,39.9,30.5,29.91,ESE,123,2.0,3.0,69,0.00,,,0.01,Wunderground v.1.15,2013-04-15 00:36:00,
2013-04-14 20:46:00,40.1,30.4,29.91,East,97,2.0,3.0,68,0.00,,,0.01,Wunderground v.1.15,2013-04-15 00:46:00,
2013-04-14 20:56:00,39.8,30.5,29.91,East,97,2.0,3.0,69,0.00,,,0.01,Wunderground v.1.15,2013-04-15 00:56:00,
2013-04-14 21:01:00,39.7,30.4,29.92,East,97,2.0,2.0,69,0.00,,,0.01,Wunderground v.1.15,2013-04-15 01:01:00,
2013-04-14 21:07:00,39.6,30.3,29.91,ESE,107,2.0,2.0,69,0.00,,,0.01,Wunderground v.1.15,2013-04-15 01:07:00,
2013-04-14 21:16:00,39.4,30.4,29.92,ESE,107,1.0,3.0,70,0.00,,,0.01,Wunderground v.1.15,2013-04-15 01:16:00,
2013-04-14 21:26:00,39.2,30.2,29.92,ESE,107,1.0,2.0,70,0.00,,,0.01,Wunderground v.1.15,2013-04-15 01:26:00,
2013-04-14 21:36:00,38.9,30.6,29.92,ESE,107,1.0,1.0,72,0.00,,,0.01,Wunderground v.1.15,2013-04-15 01:36:00,
2013-04-14 21:46:00,38.4,30.2,29.92,ESE,107,0.0,1.0,72,0.00,,,0.01,Wunderground v.1.15,2013-04-15 01:46:00,
2013-04-14 21:51:00,38.3,30.1,29.92,ESE,107,1.0,1.0,72,0.00,,,0.01,Wunderground v.1.15,2013-04-15 01:51:00,
2013-04-14 22:02:00,38.3,30.4,29.93,ESE,107,2.0,2.0,73,0.00,,,0.01,Wunderground v.1.15,2013-04-15 02:02:00,
2013-04-14 22:07:00,38.3,30.7,29.93,ESE,107,1.0,2.0,74,0.00,,,0.01,Wunderground v.1.15,2013-04-15 02:07:00,
2013-04-14 22:16:00,38.1,30.5,29.92,ESE,107,1.0,1.0,74,0.00,,,0.01,Wunderground v.1.15,2013-04-15 02:16:00,
2013-04-14 22:21:00,38.0,30.8,29.92,ESE,107,1.0,2.0,75,0.00,,,0.01,Wunderground v.1.15,2013-04-15 02:21:00,
2013-04-14 22:31:00,37.9,30.7,29.92,ESE,107,1.0,1.0,75,0.00,,,0.01,Wunderground v.1.15,2013-04-15 02:31:00,
2013-04-14 22:41:00,37.9,30.4,29.92,ESE,115,2.0,2.0,74,0.00,,,0.01,Wunderground v.1.15,2013-04-15 02:41:00,
2013-04-14 22:51:00,37.8,30.3,29.92,ESE,115,2.0,2.0,74,0.00,,,0.01,Wunderground v.1.15,2013-04-15 02:51:00,
2013-04-14 23:01:00,38.0,30.4,29.92,ESE,123,2.0,2.0,74,0.00,,,0.01,Wunderground v.1.15,2013-04-15 03:01:00,
2013-04-14 23:07:00,37.9,30.4,29.91,ESE,123,2.0,2.0,74,0.00,,,0.01,Wunderground v.1.15,2013-04-15 03:07:00,
2013-04-14 23:21:00,37.7,30.2,29.91,ESE,123,2.0,2.0,74,0.00,,,0.01,Wunderground v.1.15,2013-04-15 03:21:00,
2013-04-14 23:26:00,37.7,30.2,29.91,SE,130,2.0,4.0,74,0.00,,,0.01,Wunderground v.1.15,2013-04-15 03:26:00,
2013-04-14 23:36:00,37.9,30.0,29.91,ESE,111,2.0,2.0,73,0.00,,,0.01,Wunderground v.1.15,2013-04-15 03:36:00,
2013-04-14 23:46:00,38.0,29.8,29.91,ESE,117,3.0,3.0,72,0.00,,,0.01,Wunderground v.1.15,2013-04-15 03:46:00,
2013-04-14 23:51:00,38.0,29.8,29.90,ESE,109,3.0,3.0,72,0.00,,,0.01,Wunderground v.1.15,2013-04-15 03:51:00,
2013-04-14 23:56:00,38.0,29.8,29.91,ESE,103,3.0,3.0,72,0.00,,,0.01,Wunderground v.1.15,2013-04-15 03:56:00,